Location: Doazon
(43.4500°N, 0.5500°W)
Time: 02:37:49
(UTC+00:00)

Lacrosse 4 Rocket - Pass Details

Date: 05 December 2025
Orbit: 513 x 565 km, 68.0° (Epoch: 12 January)

Event Time Altitude Azimuth Distance (km) Brightness Sun altitude
Rises 17:19:28 0° 226° (SW) 2,719 6.3 -9.5°
Reaches altitude 10° 17:21:47 10° 234° (SW) 1,820 5.4 -9.9°
Maximum altitude 17:25:37 39° 305° (NW) 821 2.5 -10.5°
Drops below altitude 10° 17:29:25 10° 15° (NNE) 1,801 3.6 -11.2°
Enters shadow 17:30:25 - 20° (NNE) 2,179 4.0 -11.3°
